Location: Wheeling
(40.0640°N, 80.7210°W)
Time: 19:06:58
(UTC-05:00)

KAITUO 1B - Pass Details

Date: 24 October 2021
Orbit: 490 x 506 km, 97.4° (Epoch: 30 November)

Event Time Altitude Azimuth Distance (km) Brightness Sun altitude
Rises 06:51:45 0° 33° (NNE) 2,588 ? -10.5°
Reaches altitude 10° 06:54:40 10° 59° (ENE) 1,702 ? -10.0°
Maximum altitude 06:56:41 14° 93° (E) 1,456 ? -9.6°
Drops below altitude 10° 06:58:42 10° 126° (SE) 1,700 ? -9.2°
Sets 07:01:36 0° 152° (SSE) 2,582 ? -8.7°
